Probability
0 6 21 34 36 31 25 20 14 8 5 4 5 10 19 30 40 43 38 28 17 6 0 0 0 0 0 0 0 0 0 0 0 1 2 2 2 1 0 0 0 0 1
1 6 17 25 25 21 17 12 7 4 3 3 3 5 10 17 24 26 22 16 10 4 0 0 0 0 0 0 0 0 0 0 0 1 1 1 1 0 0 0 0 0 1
1 4 10 14 13 10 6 3 1 0 1 1 1 1 2 4 6 7 5 3 2 1 0 0 0 0 0 0 0 0 0 0 0 0 0 0 0 0 0 0 0 0 1
0 1 3 5 5 3 1 0 0 0 0 0 0 0 0 0 0 0 0 0 0 0 0 0 0 0 0 0 0 0 0 0 0 0 0 0 0 0 0 0 0 0 0
0 0 0 1 1 0 0 0 0 0 0 0 0 0 0 0 0 0 0 0 0 0 0 0 0 0 0 0 0 0 0 0 0 0 0 0 0 0 0 0 0 0 0
0 0 0 0 0 0 0 0 0 0 0 0 0 0 0 0 0 0 0 0 0 0 0 0 0 0 0 0 1 0 0 0 0 0 0 0 0 1 1 0 0 0 0
0 0 0 0 0 0 0 0 0 0 0 0 0 0 0 0 0 0 0 0 0 0 0 0 0 0 0 0 0 0 0 0 0 0 0 0 1 3 3 2 2 2 1
0 0 0 0 0 0 0 0 0 0 0 0 0 0 0 0 0 0 0 0 0 0 0 0 0 0 0 0 0 0 0 0 0 0 0 1 4 8 7 7 8 8 7
0 0 0 0 0 0 0 0 0 0 0 0 0 0 0 0 0 0 0 0 0 0 0 0 0 0 0 0 0 0 0 0 0 0 0 2 7 12 11 10 11 11 11
0 0 0 0 0 0 0 0 0 0 0 0 0 0 0 0 0 0 0 0 0 0 0 0 0 0 0 0 0 0 0 0 0 0 0 3 9 12 11 10 10 9 9
0 0 0 0 0 0 0 0 0 0 0 0 0 0 0 0 0 0 0 0 0 0 0 0 0 0 0 0 0 0 0 0 0 0 0 4 9 11 9 9 7 5 5
1 1 1 0 1 1 0 0 0 0 0 0 0 0 0 0 0 0 0 0 0 0 0 0 0 0 0 0 0 0 0 0 0 0 1 5 9 9 7 7 5 3 2
5 4 3 2 2 2 1 0 0 0 0 0 0 0 0 0 0 0 0 0 0 0 0 0 0 0 0 0 0 0 0 0 0 0 2 9 16 15 10 6 4 5 6
12 11 10 8 6 4 2 0 0 0 0 0 0 0 0 0 0 0 0 0 0 0 0 0 0 0 0 0 0 0 0 0 0 0 4 17 31 35 28 21 18 21 26
29 27 27 24 17 11 5 2 0 0 0 0 0 0 0 0 0 0 0 0 0 0 0 0 0 0 0 0 0 0 0 0 0 0 5 21 44 56 56 49 45 47 51
52 51 51 48 38 25 15 7 3 1 0 0 0 0 0 0 0 0 0 0 0 0 0 0 0 0 0 0 0 0 0 0 0 0 2 14 38 60 68 66 62 61 62
70 70 73 71 63 49 32 18 11 9 7 4 2 1 1 2 1 1 0 0 0 0 0 0 0 0 0 0 0 0 0 0 0 0 0 4 18 39 54 60 61 59 58
82 84 87 88 83 72 55 38 31 31 28 17 8 5 6 5 4 2 1 0 0 0 0 0 0 0 0 0 0 0 0 0 0 0 0 0 4 12 26 41 49 48 45
87 88 93 95 93 87 76 63 55 53 46 29 14 10 9 7 4 2 2 1 0 0 0 0 0 0 0 0 0 0 0 0 0 0 0 0 0 1 6 17 28 29 26
84 86 93 96 96 92 87 80 71 61 47 30 16 11 9 7 4 2 2 1 0 0 0 0 0 0 0 0 0 0 0 0 0 0 0 0 0 0 0 3 8 10 10
83 86 93 96 94 91 87 81 69 53 36 22 12 7 6 4 2 1 1 0 0 0 0 0 0 0 0 0 0 0 0 0 0 0 0 0 0 0 0 0 0 1 2
87 90 95 96 93 89 81 70 55 37 21 11 6 3 2 1 1 0 0 0 0 0 0 0 0 0 0 0 0 0 0 0 0 0 0 0 0 0 0 0 0 0 0
92 95 97 95 90 83 73 57 40 24 11 4 1 0 0 0 0 0 0 0 0 0 0 0 0 0 0 0 0 0 0 0 0 0 0 0 0 0 0 0 0 0 0
96 97 95 89 80 72 61 46 31 17 7 1 0 0 0 0 0 0 0 0 0 0 0 0 0 0 0 0 0 0 0 0 0 0 0 0 0 0 0 0 0 0 0
98 95 89 79 67 58 48 35 23 12 4 1 0 0 0 0 0 0 0 0 0 0 0 0 0 0 0 0 0 0 0 0 0 0 0 0 0 0 0 0 0 0 0
96 91 82 71 59 49 39 27 16 8 3 1 0 0 0 0 0 0 0 0 0 0 0 0 0 0 0 0 0 0 0 0 0 0 0 0 0 0 0 0 0 0 0
Wind_Speed
7 6 13 14 14 14 14 14 14 14 14 14 14 14 14 13 13 13 13 12 12 12 12 12 11 10 9 9 9 9 9 8 8 9 10 10 10 11 11 13 12 9 13
12 9 14 15 15 14 14 14 14 14 14 14 13 13 13 12 12 11 11 11 11 11 11 10 9 9 8 7 7 7 7 6 5 5 7 7 8 9 11 12 11 8 12
14 10 13 15 15 15 14 14 14 14 14 14 13 12 12 11 11 10 10 10 10 10 9 9 8 7 6 5 5 5 5 4 4 3 3 2 3 7 9 11 12 11 11
14 9 11 16 16 16 15 15 15 15 15 14 13 13 12 11 10 10 10 10 9 9 8 7 6 5 5 4 3 3 4 4 4 3 1 1 2 6 8 10 11 11 10
11 9 12 18 17 16 16 15 15 15 15 14 14 13 11 10 9 9 9 10 9 8 7 6 5 4 3 2 3 3 4 4 4 3 1 1 2 6 8 9 9 9 9
12 10 12 17 17 17 16 15 15 15 15 14 14 13 11 10 9 9 9 9 8 7 7 6 4 3 1 1 3 3 5 5 3 1 1 2 4 7 8 8 9 9 8
10 8 10 16 17 17 17 16 15 15 14 13 12 11 10 9 9 9 9 9 8 7 6 5 4 2 1 2 4 4 5 5 2 1 1 3 5 8 8 8 8 8 8
12 9 9 16 17 17 16 16 14 14 13 12 11 10 10 9 9 9 9 8 7 7 6 5 4 3 3 4 5 4 4 4 3 2 3 4 7 9 9 8 8 7 7
13 11 8 9 12 16 16 15 14 13 12 12 11 10 10 9 9 9 8 8 8 7 6 6 5 5 5 5 6 5 4 2 2 2 4 3 8 10 10 9 8 8 7
11 11 9 8 7 8 9 15 15 14 13 12 12 12 11 10 10 10 8 8 9 8 7 7 6 6 6 6 7 6 4 1 2 3 3 5 10 11 11 10 9 8 8
11 9 10 9 8 7 7 11 12 14 13 12 10 12 10 5 5 6 8 10 9 9 8 8 7 6 6 7 8 8 4 0 2 3 3 7 11 11 11 10 10 9 9
15 13 11 11 10 9 9 7 5 6 6 6 5 6 5 4 4 6 8 11 10 10 9 8 7 6 5 3 5 6 1 1 2 3 5 11 12 12 11 11 10 10 9
17 16 14 13 12 11 7 7 4 3 4 5 6 6 5 4 4 4 3 5 5 7 4 3 3 2 3 3 3 3 1 1 2 2 4 11 11 12 12 11 10 10 9
17 17 16 15 13 12 8 7 6 5 5 5 6 7 5 4 4 4 3 4 3 2 3 2 2 3 3 4 3 2 0 1 2 2 4 11 10 11 11 11 10 10 9
18 18 19 17 15 13 10 8 8 7 7 7 6 7 7 5 5 5 4 3 3 3 3 3 2 2 1 1 0 1 2 2 2 2 2 8 9 9 10 11 11 10 9
19 19 18 18 16 14 11 9 8 8 7 6 6 7 8 6 5 5 4 3 3 3 3 3 2 2 2 2 3 4 3 3 1 2 2 4 7 8 9 10 10 9 9
17 17 17 17 16 15 13 11 8 7 7 6 5 6 7 6 5 5 4 3 2 2 3 3 3 3 3 4 4 4 4 4 3 1 1 2 3 7 9 9 9 8 8
15 15 16 16 16 15 11 9 7 7 7 5 5 5 6 5 6 5 4 3 2 3 3 4 3 3 3 3 3 3 3 3 4 3 2 2 2 3 5 8 8 7 7
17 16 15 13 15 13 10 7 7 6 6 5 4 4 5 6 6 5 4 3 4 4 3 3 4 3 3 3 3 2 3 3 4 5 5 4 2 2 2 4 5 5 6
16 15 15 13 14 13 10 7 5 5 4 4 4 5 6 6 7 6 5 5 5 4 4 4 4 4 3 2 3 4 3 3 3 3 4 4 4 4 4 3 2 3 5
14 15 16 17 16 13 9 8 7 5 4 4 5 7 7 8 8 7 5 5 5 4 3 3 3 4 3 3 3 4 4 4 3 3 3 4 6 6 5 4 2 2 3
18 17 16 16 14 10 7 5 5 6 5 4 4 6 7 8 7 7 7 5 4 4 5 5 3 2 3 3 2 2 4 5 4 3 3 4 5 5 6 6 4 4 3
17 16 13 11 10 9 9 8 8 6 4 3 5 4 6 7 8 8 7 6 5 4 4 4 4 3 2 3 3 2 1 2 4 4 3 4 5 4 4 4 6 6 6
13 10 10 10 9 9 10 10 11 8 6 4 4 4 5 6 7 8 7 6 5 4 4 4 4 3 3 2 2 2 2 2 1 4 5 4 5 4 4 5 5 4 4
11 10 10 10 9 8 8 9 9 7 6 6 6 7 6 5 6 7 6 6 5 4 4 4 3 3 2 1 1 0 1 1 1 2 4 5 5 4 3 3 3 4 4
12 11 11 10 9 8 8 8 9 11 11 9 7 6 5 4 4 5 6 5 5 4 3 2 2 2 1 1 1 1 1 1 2 2 3 4 5 5 4 4 4 4 4
Wind_Direction
151 161 139 130 128 127 124 120 117 114 110 107 105 103 100 99 100 102 105 108 109 110 110 108 105 102 99 97 96 97 97 96 99 103 104 102 99 97 99 106 104 101 104
149 155 140 133 131 129 128 124 121 118 114 111 108 106 103 101 100 101 104 106 108 110 110 108 106 104 100 97 95 94 92 87 82 90 99 100 102 99 99 105 107 108 106
143 146 140 135 133 131 128 126 124 122 119 116 113 110 107 104 103 103 105 107 108 110 110 107 104 99 93 88 82 78 76 70 58 54 72 75 108 115 112 112 113 112 109
142 143 142 137 134 131 129 127 126 126 124 122 120 117 114 111 109 108 110 112 111 111 109 106 101 94 84 70 55 45 41 36 25 12 37 169 171 135 126 121 121 119 116
140 142 146 138 134 133 131 130 130 130 129 128 126 124 121 119 118 117 118 119 119 117 116 113 107 97 77 43 15 11 16 15 9 7 318 190 173 155 140 132 128 126 126
142 144 145 138 136 135 135 134 134 135 135 133 132 130 127 125 126 127 127 128 128 128 127 125 120 110 77 345 331 348 5 6 10 351 273 154 143 153 147 143 137 137 140
140 141 143 139 139 139 139 139 139 139 138 136 135 133 131 130 131 132 134 136 138 139 140 141 143 155 224 278 301 334 3 6 42 8 115 129 143 152 154 149 144 148 155
142 140 142 145 144 144 144 143 143 142 141 140 139 137 136 136 137 138 141 144 146 149 154 163 180 208 241 269 294 327 359 21 69 105 129 146 156 155 153 146 144 148 154
144 144 144 149 149 150 149 148 147 147 147 147 146 145 145 146 148 150 151 153 158 163 173 187 206 229 253 276 295 316 336 20 123 167 162 164 165 162 160 155 153 151 149
146 151 151 151 150 151 154 155 155 156 156 156 156 156 157 159 163 165 164 169 173 181 191 204 219 240 261 280 294 306 318 35 174 192 178 182 177 171 167 164 163 161 160
155 160 159 158 158 156 159 165 163 164 166 166 166 167 165 167 170 172 178 183 187 195 204 213 226 245 266 283 292 296 309 162 192 187 183 188 183 179 174 173 172 173 175
167 171 169 167 167 166 171 164 169 171 173 172 173 175 172 177 189 190 195 193 197 204 213 221 231 249 269 283 292 301 304 242 195 186 192 190 187 185 181 181 182 184 187
172 173 175 174 173 175 173 167 177 178 178 183 186 187 184 186 197 196 185 198 204 210 217 238 249 246 257 273 296 312 306 228 181 183 191 190 191 191 189 191 193 195 199
173 178 177 177 177 180 174 176 180 183 187 194 198 194 187 189 191 188 188 193 195 199 197 222 237 239 246 263 273 285 349 135 155 166 194 193 197 200 200 200 203 206 209
179 181 179 179 179 180 175 182 184 190 192 198 197 196 190 188 191 189 193 192 203 198 186 194 215 222 217 238 250 83 75 98 143 164 208 206 208 212 212 211 212 213 215
184 184 179 180 181 179 180 186 187 190 191 194 196 194 186 181 179 176 174 173 189 185 173 168 161 132 99 78 49 43 51 59 98 188 221 226 227 228 227 224 223 223 225
183 182 180 180 180 181 183 190 188 186 182 185 184 177 169 161 157 149 144 147 157 145 132 113 96 79 69 54 38 27 30 23 24 357 278 274 271 256 246 238 231 227 228
176 177 181 180 179 181 179 183 181 177 169 169 162 152 144 132 127 123 121 114 106 99 101 98 81 71 53 40 18 3 9 6 1 349 339 302 281 275 269 256 245 240 242
177 174 176 172 173 174 169 167 166 158 155 150 137 122 113 109 110 105 98 85 79 72 65 76 62 69 51 22 355 358 358 344 336 340 341 336 325 304 291 280 269 260 262
174 173 173 168 173 169 158 147 137 127 126 119 114 110 105 98 97 95 86 74 72 72 57 57 63 52 53 19 359 352 330 325 341 3 6 12 14 8 2 358 348 336 329
174 176 178 174 176 169 162 154 141 133 118 102 99 103 101 97 92 87 83 69 66 73 70 67 64 51 32 20 28 351 334 343 15 43 34 37 25 13 9 12 9 9 344
182 182 182 179 174 170 155 135 116 114 103 96 97 87 90 95 95 93 87 79 67 73 62 51 55 60 26 32 65 35 349 341 347 12 19 33 16 7 6 2 358 353 336
182 183 178 171 158 149 135 120 113 99 88 82 82 80 82 92 94 96 93 88 75 77 77 68 65 78 51 21 51 104 92 295 315 324 354 20 11 10 0 354 8 2 356
174 161 151 147 144 138 137 142 144 142 139 135 125 111 97 93 99 101 100 97 90 88 88 79 76 81 87 40 22 50 134 177 231 313 326 342 356 359 350 352 351 347 350
138 133 128 125 122 123 129 134 130 122 118 121 119 116 106 98 102 108 107 102 98 98 99 91 88 81 101 128 117 30 35 45 143 186 286 311 320 310 305 304 310 314 319
109 108 110 110 105 110 117 123 133 134 133 134 133 130 121 110 103 110 108 102 108 112 112 108 100 93 121 159 182 185 182 223 249 221 247 270 283 288 294 290 291 290 293